Terug naar catalogus

OOV-CUBE

ActiefAmateurradioVLEO
NORAD 60240·PAYLOAD·🇩🇪 Germany

Gelanceerd Jul 9, 2024 vanaf Guiana Space Centre

Loading…

Volgende Passages (komende 24 uur)

TLE

VersSource: Space-Track

Epoch: Sep 13, 2026, 13:01 UTC

1 60240U 24128F   26256.54282977  .00001228  00000-0  10524-3 0  9992
2 60240  61.9931 277.4049 0032208 154.2894 205.9807 15.03092161119396

Volg OOV-CUBE in realtime met AllMySat

Download on the App Store